Theta_e
297 295 296 295 295 294 294 294 294 294 293 293 293 293 294 293 293 293 293 291 291 292
294 294 293 293 293 292 292 291 291 291 291 291 291 291 292 291 290 290 290 289 289 289
291 291 291 290 290 290 289 289 289 289 289 289 289 290 290 289 288 288 288 288 287 287
288 288 289 288 288 288 288 287 287 287 287 287 287 288 288 287 286 286 286 286 285 285
286 286 286 286 286 286 285 286 285 285 285 286 286 286 286 286 285 284 284 284 284 283
285 285 284 284 284 284 284 284 284 284 283 284 285 286 286 285 284 284 283 283 283 282
285 284 284 283 283 283 283 283 283 283 283 283 285 285 285 284 283 283 283 283 282 282
283 283 283 282 282 282 282 282 282 282 282 282 284 284 284 284 282 281 281 282 281 282
282 282 281 281 281 281 280 281 281 280 280 280 281 283 283 283 281 281 280 280 281 280
281 280 280 279 279 279 279 279 279 279 279 279 280 282 282 282 281 280 280 280 279 279
279 279 278 278 277 277 278 278 278 278 278 278 278 280 281 281 280 280 280 280 279 278
278 278 277 277 276 277 277 277 277 277 277 276 277 278 280 280 279 278 278 279 279 278
277 277 276 276 275 276 276 275 276 275 276 276 276 276 279 280 279 277 277 277 278 278
275 275 276 275 275 275 274 274 274 274 275 275 275 275 277 279 277 277 276 276 276 276
Wind_Speed
9 6 6 6 6 5 5 6 7 7 8 8 9 8 7 6 6 7 6 9 8 6
7 8 7 7 6 5 5 5 7 7 7 8 9 8 7 7 8 8 8 8 8 6
8 6 5 5 7 7 6 6 6 7 7 8 8 8 7 7 8 7 6 5 7 7
6 6 5 6 6 7 6 6 6 7 8 7 7 7 7 7 8 7 8 8 8 8
5 6 5 5 6 5 6 6 7 7 7 6 7 7 8 8 8 8 9 9 8 8
6 5 5 4 5 6 6 6 6 6 6 6 6 7 8 8 8 7 7 7 7 8
5 5 4 5 5 5 5 6 6 6 6 5 6 7 6 7 7 6 5 6 7 7
5 4 5 5 5 5 5 5 5 5 5 5 5 5 7 6 6 7 7 6 7 7
5 4 5 5 4 4 5 5 4 5 4 4 2 7 8 8 6 6 5 6 7 9
4 5 4 4 4 3 4 3 3 3 3 4 3 8 9 8 5 5 5 7 8 8
4 4 3 3 2 2 1 1 1 2 3 4 3 7 8 8 5 5 7 7 9 9
5 4 4 3 3 2 1 1 2 2 2 3 3 6 8 8 5 6 8 8 9 9
4 5 5 4 3 2 0 0 1 2 2 2 4 5 8 8 4 6 7 9 9 12
5 4 4 3 2 1 2 2 2 3 3 2 2 4 7 9 5 6 7 8 8 8
Wind_Direction
72 87 87 74 71 61 59 46 32 38 41 41 36 27 31 41 35 28 24 21 13 353
78 76 79 74 72 65 54 50 47 47 48 47 44 34 32 39 29 31 25 23 11 0
75 71 72 76 71 71 64 56 55 56 51 51 46 38 42 43 34 37 32 25 15 11
94 92 80 69 66 61 61 56 56 53 55 54 50 41 44 44 31 28 25 23 12 10
96 79 72 72 71 72 72 61 60 59 63 61 49 39 34 31 22 20 15 9 3 1
93 96 97 95 77 67 70 67 62 61 56 51 39 36 28 22 15 16 9 1 359 359
119 116 105 90 81 75 68 64 59 52 49 45 33 30 19 10 5 -0 1 358 355 357
122 127 113 95 83 71 63 60 52 49 47 41 33 19 5 2 357 350 350 350 352 350
145 126 98 81 78 75 65 57 57 50 43 42 31 6 4 1 341 337 340 341 346 344
132 107 95 88 83 75 70 58 55 50 35 28 9 359 353 357 327 324 338 338 342 339
120 125 127 121 115 97 96 82 54 46 24 4 2 339 336 345 333 334 340 338 335 336
167 165 168 173 166 170 173 90 25 2 351 322 321 329 336 348 343 337 334 336 329 336
176 184 187 181 175 165 119 333 271 292 275 284 312 339 340 351 347 333 331 325 327 335
183 187 182 168 182 158 227 235 228 234 239 269 325 326 334 355 342 334 329 323 333 332